Terminal Aerodrome Forecast
Issued by NWS Amarillo, TX

Home | Current Version | Previous Version | Text Only | Print | Product List | Glossary On
Versions: 1 2 3 4 5 6 7 8 9 10 11 12 13
000
FTUS44 KAMA 200500
TAFGUY
TAF
KGUY 200520Z 2006/2106 18010KT P6SM FEW060
     FM200900 20006KT P6SM BKN035
     FM201600 14008KT P6SM BKN060=

USA.gov is the U.S. government's official web portal to all federal, state and local government web resources and services.